Weather History for EHGG - October, 2013

Change the Weather History Date:

Tuesday, October 22, 2013

  Actual Average Record
Temperature  
Mean Temperature 62 °F -  
Max Temperature 70 °F 50 °F 70 °F (2013)
Min Temperature 55 °F 38 °F 24 °F (2003)
Degree Days  
Heating Degree Days 2    
Growing Degree Days 12 (Base 50)    
Moisture  
Dew Point 57 °F    
Average Humidity 80    
Maximum Humidity 94    
Minimum Humidity 61    
Precipitation  
Precipitation 0.16 in 0.10 in - ()
Sea Level Pressure  
Sea Level Pressure 29.67 in    
Wind  
Wind Speed 9 mph ()    
Max Wind Speed 16 mph    
Max Gust Speed -    
Visibility 7.2 miles    
Events Rain    
Averages and records for this station are not official NWS values.
T = Trace of Precipitation, MM = Missing Value Source: Averaged Metar Reports

Daily Weather History Graph

Daily Weather History Graph

Search for Another Location

Airport or City:

Trip Planner

Search our weather history database for the weather conditions in past years. The results will help you decide how hot, cold, wet, or windy it might be!

Date:

Astronomy

Oct. 22, 2013 Rise Set
Actual Time 8:13 AM CEST 6:22 PM CEST
Civil Twilight 7:37 AM CEST 6:57 PM CEST
Nautical Twilight 6:57 AM CEST 7:38 PM CEST
Astronomical Twilight 6:17 AM CEST 8:18 PM CEST
Moon 8:27 PM CEST (10/22) 11:49 AM CEST (10/22)
Length of Visible Light 11h 20m
Length of Day
10h 09m
Waning Gibbous, 88% of the Moon is Illuminated
Oct 22
Waning Gibbous
Oct 27
Last Quarter
Nov 3
New
Nov 10
First Quarter
Nov 17
Full

Hourly Weather History & Observations

Time (CEST) Temp. Dew Point Humidity Pressure Visibility Wind Dir Wind Speed Gust Speed Precip Events Conditions
12:25 AM 59.0 °F 53.6 °F 82% 29.80 in 6.2 mi South 11.5 mph - N/A   Unknown
12:55 AM 59.0 °F 53.6 °F 82% 29.80 in 6.2 mi South 10.4 mph - N/A   Unknown
1:25 AM 59.0 °F 53.6 °F 82% 29.80 in 6.2 mi South 10.4 mph - N/A   Unknown
1:55 AM 59.0 °F 53.6 °F 82% 29.80 in 6.2 mi South 10.4 mph - N/A   Unknown
2:00 AM 58 °F 54 °F 81% 29.81 in 19 mi South 8.9 mph - -   Partly Cloudy
2:25 AM 57.2 °F 53.6 °F 88% 29.80 in 6.2 mi South 9.2 mph - N/A   Unknown
2:55 AM 57.2 °F 53.6 °F 88% 29.80 in 6.2 mi South 9.2 mph - N/A   Unknown
3:25 AM 57.2 °F 53.6 °F 88% 29.80 in 6.2 mi South 8.1 mph - N/A   Unknown
3:55 AM 55.4 °F 53.6 °F 94% 29.77 in 6.2 mi South 8.1 mph - N/A   Unknown
4:25 AM 55.4 °F 53.6 °F 94% 29.77 in 6.2 mi South 6.9 mph - N/A   Unknown
4:55 AM 55.4 °F 53.6 °F 94% 29.77 in 6.2 mi South 8.1 mph - N/A   Unknown
5:00 AM 56 °F 54 °F 89% 29.78 in 9 mi South 8.9 mph - -   Scattered Clouds
5:25 AM 57.2 °F 53.6 °F 88% 29.77 in 6.2 mi SSE 9.2 mph - N/A   Unknown
5:55 AM 55.4 °F 53.6 °F 94% 29.77 in 6.2 mi South 8.1 mph - N/A   Unknown
6:25 AM 57.2 °F 53.6 °F 88% 29.74 in 6.2 mi South 9.2 mph - N/A   Unknown
6:55 AM 57.2 °F 53.6 °F 88% 29.74 in 6.2 mi South 9.2 mph - N/A   Unknown
7:25 AM 57.2 °F 53.6 °F 88% 29.74 in 6.2 mi South 9.2 mph - N/A   Unknown
7:55 AM 55.4 °F 53.6 °F 94% 29.74 in 6.2 mi SSE 9.2 mph - N/A   Unknown
8:00 AM 56 °F 54 °F 90% 29.74 in 8 mi SSE 8.9 mph - -   Partly Cloudy
8:25 AM 55.4 °F 53.6 °F 94% 29.71 in 6.2 mi SSE 8.1 mph - N/A   Unknown
8:55 AM 55.4 °F 53.6 °F 94% 29.71 in 6.2 mi SSE 8.1 mph - N/A   Unknown
9:25 AM 57.2 °F 53.6 °F 88% 29.71 in 6.2 mi SSE 9.2 mph - N/A   Unknown
9:55 AM 59.0 °F 55.4 °F 88% 29.71 in 6.2 mi SSE 9.2 mph - N/A   Unknown
10:25 AM 60.8 °F 55.4 °F 82% 29.71 in 6.2 mi SSE 10.4 mph - N/A   Unknown
10:55 AM 62.6 °F 57.2 °F 82% 29.68 in 6.2 mi South 11.5 mph - N/A   Unknown
11:00 AM 62 °F 57 °F 78% 29.70 in 12 mi South 13.4 mph - -   Scattered Clouds
11:25 AM 64.4 °F 57.2 °F 77% 29.68 in 6.2 mi South 12.7 mph - N/A   Unknown
11:55 AM 66.2 °F 59.0 °F 78% 29.68 in 6.2 mi South 13.8 mph - N/A   Unknown
12:25 PM 66.2 °F 59.0 °F 78% 29.68 in 6.2 mi South 11.5 mph - N/A   Unknown
12:55 PM 66.2 °F 59.0 °F 78% 29.65 in 6.2 mi South 12.7 mph - N/A   Unknown
1:25 PM 68.0 °F 59.0 °F 73% 29.65 in 6.2 mi SSE 12.7 mph - N/A   Unknown
1:55 PM 69.8 °F 60.8 °F 73% 29.62 in 6.2 mi South 12.7 mph - N/A   Unknown
2:00 PM 69 °F 60 °F 65% 29.65 in 14 mi South 13.4 mph - -   Partly Cloudy
2:25 PM 69.8 °F 59.0 °F 68% 29.62 in 6.2 mi South 13.8 mph - N/A   Unknown
2:55 PM 69.8 °F 60.8 °F 73% 29.59 in 6.2 mi South 11.5 mph - N/A   Unknown
3:25 PM 69.8 °F 59.0 °F 68% 29.59 in 6.2 mi South 15.0 mph - N/A   Unknown
3:55 PM 69.8 °F 59.0 °F 68% 29.59 in 6.2 mi South 10.4 mph - N/A   Unknown
4:25 PM 69.8 °F 59.0 °F 68% 29.59 in 6.2 mi South 13.8 mph - N/A   Unknown
4:55 PM 69.8 °F 59.0 °F 68% 29.59 in 6.2 mi South 16.1 mph - N/A   Unknown
5:00 PM 69 °F 58 °F 61% 29.59 in 18 mi South 13.4 mph - -   Overcast
5:25 PM 68.0 °F 59.0 °F 73% 29.56 in 6.2 mi SSE 11.5 mph - N/A   Unknown
5:55 PM 68.0 °F 59.0 °F 73% 29.56 in 6.2 mi SSE 9.2 mph - N/A   Unknown
6:25 PM 66.2 °F 59.0 °F 78% 29.56 in 6.2 mi SSE 9.2 mph - N/A   Unknown
6:55 PM 66.2 °F 59.0 °F 78% 29.56 in 6.2 mi SSE 9.2 mph - N/A   Unknown
7:25 PM 66.2 °F 59.0 °F 78% 29.56 in 6.2 mi South 9.2 mph - N/A   Unknown
7:55 PM 66.2 °F 59.0 °F 78% 29.56 in 6.2 mi South 10.4 mph - N/A   Unknown
8:00 PM 66 °F 58 °F 69% 29.59 in 16 mi South 8.9 mph - -   Partly Cloudy
8:25 PM 66.2 °F 59.0 °F 78% 29.56 in 6.2 mi South 10.4 mph - N/A   Unknown
8:55 PM 66.2 °F 59.0 °F 78% 29.56 in 6.2 mi South 11.5 mph - N/A   Unknown
9:25 PM 66.2 °F 57.2 °F 73% 29.56 in 6.2 mi South 10.4 mph - N/A   Unknown
9:55 PM 64.4 °F 57.2 °F 77% 29.56 in 6.2 mi South 9.2 mph - N/A   Unknown
10:25 PM 64.4 °F 57.2 °F 77% 29.56 in 6.2 mi South 9.2 mph - N/A   Unknown
10:55 PM 64.4 °F 59.0 °F 83% 29.56 in 6.2 mi South 6.9 mph - N/A   Light Drizzle
11:00 PM 64 °F 58 °F 75% 29.57 in 12 mi South 6.7 mph - - Rain Light Drizzle
11:25 PM 64.4 °F 57.2 °F 77% 29.56 in 6.2 mi SSW 8.1 mph - N/A Rain Light Rain
11:55 PM 62.6 °F 57.2 °F 82% 29.56 in 6.2 mi SSW 13.8 mph - N/A Rain Light Rain